Home   Weather   Lennestadt   Past weeks

Flag for Germany Past Weather in Lennestadt, North Rhine-Westphalia, Germany — Yesterday and Last 2 Weeks

Now
21 °F

Partly sunny.


Feels Like: 15 °F
Forecast: 9 / 26 °F
Wind: 5 mph from Northeast

Location: Hessen

Current Time: Jan 17, 2017 at 12:06:16 pm

Latest Report: Jan 17, 2017 at 11:20 am


Visibility: N/A

Pressure: 30.48 "Hg

Humidity: 100%

Dew Point: 21 °F

Location of LennestadtLocation

Past Weather in Lennestadt — Graph

°F

Lennestadt Temperature Yesterday

Maximum temperature yesterday: 27 °F (at 1:50 pm)
Minimum temperature yesterday: 21 °F (at 8:50 am)
Average temperature yesterday: 23 °F

High & Low Weather Summary for the Past Weeks

 TemperatureHumidityPressure
High37 °F (Jan 11, 4:50 pm)100% (Jan 2, 10:20 am)30.63 "Hg (Jan 2, 10:20 am)
Low12 °F (Jan 6, 6:20 am)68% (Jan 7, 12:20 pm)29.39 "Hg (Jan 12, 8:50 pm)
Average27 °F96%30.07 "Hg
* Reported Jan 2 10:20 am — Jan 17 10:20 am, Lennestadt, Weather by CustomWeather, © 2017

Note: Actual official high and low records may vary slightly from our data, if they occured in-between our weather recording intervals... More about our weather records

Advertising

Lennestadt Weather History for the Previous 24 Hours

Scroll right to see more
 ConditionsComfort  
Time TempWeatherWind HumidityBarometerVisibility
10:20 am
Tue, Jan 17
21 °FPartly sunny.6 mph93%30.48 "HgN/A
9:20 am21 °FPartly sunny.6 mph93%30.45 "HgN/A
8:50 am21 °FPartly sunny.7 mph93%30.45 "HgN/A
8:20 am21 °FPassing clouds.7 mph93%30.45 "HgN/A
7:50 am21 °FPassing clouds.8 mph93%30.45 "HgN/A
8:50 pm
Mon, Jan 16
21 °FClear.6 mph100%30.30 "Hg10 mi
8:20 pm21 °FClear.5 mph100%30.30 "Hg10 mi
7:50 pm21 °FClear.3 mph100%30.30 "Hg10 mi
7:20 pm21 °FClear.3 mph100%30.27 "Hg5 mi
6:50 pm21 °FIce fog.5 mph100%30.27 "Hg2 mi
6:20 pm23 °FIce fog.8 mph100%30.27 "Hg2 mi
5:20 pm23 °FPassing clouds.8 mph100%30.24 "HgN/A
4:20 pm23 °FPassing clouds.7 mph93%30.24 "HgN/A
3:50 pm25 °FPassing clouds.6 mph93%30.24 "HgN/A
3:20 pm25 °FPassing clouds.6 mph86%30.21 "HgN/A
2:50 pm25 °FPassing clouds.6 mph93%30.21 "HgN/A
2:20 pm25 °FPassing clouds.6 mph93%30.21 "HgN/A
1:50 pm27 °FScattered clouds.3 mph86%30.21 "HgN/A
1:20 pm25 °FPassing clouds.3 mph93%30.21 "HgN/A
12:50 pm25 °FPassing clouds.5 mph93%30.21 "HgN/A
12:20 pm23 °FPassing clouds.6 mph100%30.21 "HgN/A
Weather by CustomWeather, © 2017

See weather overviewHow to use our weather pages